DW1449 Weather Reports


time (UTC)temp
C
wind
direction
speed
KPH
gust
KPH
rain 1hr
cm
rain 24hr
cm
rain mn
cm
humidity
%
barometer
mb
20260505140536 11 0.0 0.0 0.00 0.00 0.00 40 1011.8
20260505125035 11 0.0 0.0 0.00 0.00 0.00 47 1012.0
20260505124542 12 0.0 0.0 0.00 0.00 0.00 40 1012.0
20260505124035 12 0.0 0.0 0.00 0.00 0.00 43 1012.0
20260505123537 12 0.0 0.0 0.00 0.00 0.00 36 1011.9
20260505123047 12 0.0 0.0 0.00 0.00 0.00 38 1011.9
20260505122536 12 0.0 0.0 0.00 0.00 0.00 41 1012.1
20260505122036 11 0.0 0.0 0.00 0.00 0.00 42 1012.1
20260505121542 11 0.0 0.0 0.00 0.00 0.00 38 1012.0
20260505121035 12 0.0 0.0 0.00 0.00 0.00 41 1012.0
20260505120534 12 0.0 0.0 0.00 0.00 0.00 40 1012.0
20260505120042 12 0.0 0.0 0.00 0.00 0.00 49 1011.8
20260505115535 12 0.0 0.0 0.00 0.00 0.00 41 1011.9
20260505115035 12 0.0 0.0 0.00 0.00 0.00 44 1012.0
20260505114542 11 0.0 0.0 0.00 0.00 0.00 47 1011.8
20260505114034 11 0.0 0.0 0.00 0.00 0.00 50 1012.0
20260505113533 12 0.0 0.0 0.00 0.00 0.00 63 1011.9
20260505113051 11 0.0 0.0 0.00 0.00 0.00 60 1012.0
20260505112535 11 0.0 0.0 0.00 0.00 0.00 57 1012.1
20260505112034 11 0.0 0.0 0.00 0.00 0.00 61 1012.0
20260505111545 11 0.0 0.0 0.00 0.00 0.00 51 1012.1
20260505111036 11 0.0 0.0 0.00 0.00 0.00 64 1012.0
20260505110538 11 0.0 0.0 0.00 0.00 0.00 62 1011.9
20260505102035 10 0.0 0.0 0.00 0.00 0.00 64 1012.2
20260505101557 10 0.0 0.0 0.00 0.00 0.00 68 1012.2
20260505101035 11 0.0 0.0 0.00 0.00 0.00 68 1012.2
20260505100536 11 0.0 0.0 0.00 0.00 0.00 66 1012.2
20260505100057 11 0.0 0.0 0.00 0.00 0.00 68 1012.2
20260505095537 10 0.0 0.0 0.00 0.00 0.00 67 1012.2
20260505095035 11 0.0 0.0 0.00 0.00 0.00 70 1012.2
20260505094545 10 0.0 0.0 0.00 0.00 0.00 74 1012.2
20260505094034 10 0.0 0.0 0.00 0.00 0.00 74 1012.2
20260505093536 10 0.0 0.0 0.00 0.00 0.00 74 1012.1
20260505093044 10 0.0 0.0 0.00 0.00 0.00 76 1012.3
20260505092536 10 0.0 0.0 0.00 0.00 0.00 76 1012.2
20260505092037 10 0.0 0.0 0.00 0.00 0.00 77 1012.3
20260505091543 10 0.0 0.0 0.00 0.00 0.00 74 1012.3
20260505091034 10 0.0 0.0 0.00 0.00 0.00 73 1012.1
20260505090535 10 0.0 0.0 0.00 0.00 0.00 74 1012.3
20260505090041 10 0.0 0.0 0.00 0.00 0.00 78 1012.4
20260505085533 10 0.0 0.0 0.00 0.00 0.00 76 1012.5
20260505085039 10 0.0 0.0 0.00 0.00 0.00 73 1012.4
20260505084539 10 0.0 0.0 0.00 0.00 0.00 72 1012.4
20260505084035 10 0.0 0.0 0.00 0.00 0.00 75 1012.4
20260505083535 10 0.0 0.0 0.00 0.00 0.00 73 1012.4
20260505083042 10 0.0 0.0 0.00 0.00 0.00 74 1012.2
20260505082536 10 0.0 0.0 0.00 0.00 0.00 78 1012.3
20260505082034 9 0.0 0.0 0.00 0.00 0.00 80 1012.2
20260505081553 9 0.0 0.0 0.00 0.00 0.00 77 1012.4
20260505081036 9 0.0 0.0 0.00 0.00 0.00 80 1012.3
20260505080536 9 0.0 0.0 0.00 0.00 0.00 78 1012.2
20260505080053 9 0.0 0.0 0.00 0.00 0.00 78 1012.2
20260505075535 9 0.0 0.0 0.00 0.00 0.00 79 1012.1
20260505075034 9 0.0 0.0 0.00 0.00 0.00 81 1012.0
20260505074541 9 0.0 0.0 0.00 0.00 0.00 81 1012.1
20260505074035 9 0.0 0.0 0.00 0.00 0.00 82 1012.2
20260505073533 9 0.0 0.0 0.00 0.00 0.00 82 1012.3
20260505073048 8 0.0 0.0 0.00 0.00 0.00 82 1012.2
20260505072537 8 0.0 0.0 0.00 0.00 0.00 83 1012.3
20260505072035 8 0.0 0.0 0.00 0.00 0.00 83 1012.2
20260505071551 8 0.0 0.0 0.00 0.00 0.00 83 1012.1
20260505071036 8 0.0 0.0 0.00 0.00 0.00 82 1012.1
20260505070535 8 0.0 0.0 0.00 0.00 0.00 83 1012.1
20260505070042 8 0.0 0.0 0.00 0.00 0.00 83 1012.1
20260505065536 8 0.0 0.0 0.00 0.00 0.00 84 1012.0
20260505065035 8 0.0 0.0 0.00 0.00 0.00 85 1012.1
20260505064542 8 0.0 0.0 0.00 0.00 0.00 85 1012.1
20260505064036 8 0.0 0.0 0.00 0.00 0.00 85 1012.1
20260505063535 8 0.0 0.0 0.00 0.00 0.00 86 1012.0
20260505063048 8 0.0 0.0 0.00 0.00 0.00 86 1012.1
20260505062536 8 0.0 0.0 0.00 0.00 0.00 87 1012.1
20260505062036 8 0.0 0.0 0.00 0.00 0.00 88 1012.1
20260505061541 7 0.0 0.0 0.00 0.00 0.00 88 1011.9
20260505061035 8 0.0 0.0 0.00 0.00 0.00 89 1012.0
20260505060535 8 0.0 0.0 0.00 0.00 0.00 90 1011.9
20260505060049 8 0.0 0.0 0.00 0.00 0.00 92 1012.0
20260505055535 8 0.0 0.0 0.00 0.00 0.00 92 1012.0
20260505055034 7 0.0 0.0 0.00 0.00 0.00 94 1012.0
20260505054549 7 0.0 0.0 0.00 0.00 0.00 94 1012.0
20260505054036 7 0.0 0.0 0.00 0.00 0.00 95 1012.0
20260505053535 7 0.0 0.0 0.00 0.00 0.00 96 1011.9
20260505053046 7 0.0 0.0 0.00 0.00 0.00 96 1011.9
20260505052537 6 0.0 0.0 0.00 0.00 0.00 96 1012.2
20260505052034 6 0.0 0.0 0.00 0.00 0.00 96 1012.1
20260505051549 6 0.0 0.0 0.00 0.00 0.00 97 1012.0
20260505051036 6 0.0 0.0 0.00 0.00 0.00 97 1012.0
20260505050535 6 0.0 0.0 0.00 0.00 0.00 96 1012.2
20260505041543 4 0.0 0.0 0.00 0.00 0.00 96 1012.1
20260505041036 4 0.0 0.0 0.00 0.00 0.00 96 1012.0
20260505040533 4 0.0 0.0 0.00 0.00 0.00 95 1012.1
20260505040042 4 0.0 0.0 0.00 0.00 0.00 96 1012.1
20260505035535 4 0.0 0.0 0.00 0.00 0.00 96 1012.1
20260505035035 3 0.0 0.0 0.00 0.00 0.00 96 1012.0
20260505034545 3 0.0 0.0 0.00 0.00 0.00 96 1012.0
20260505034035 3 0.0 0.0 0.00 0.00 0.00 96 1012.0
20260505033535 3 0.0 0.0 0.00 0.00 0.00 95 1011.9
20260505033046 3 0.0 0.0 0.00 0.00 0.00 95 1011.9
20260505032535 4 0.0 0.0 0.00 0.00 0.00 95 1011.9
20260505032036 4 0.0 0.0 0.00 0.00 0.00 96 1011.7
20260505031549 4 0.0 0.0 0.00 0.00 0.00 96 1011.8
20260505031035 4 0.0 0.0 0.00 0.00 0.00 96 1011.6
20260505030535 4 0.0 0.0 0.00 0.00 0.00 96 1011.6
20260505030043 4 0.0 0.0 0.00 0.00 0.00 96 1011.7
20260505025535 3 0.0 0.0 0.00 0.00 0.00 95 1011.7
20260505025034 4 0.0 0.0 0.00 0.00 0.00 96 1011.5
20260505024552 3 0.0 0.0 0.00 0.00 0.00 96 1011.7
20260505024035 3 0.0 0.0 0.00 0.00 0.00 96 1011.8
20260505023535 3 0.0 0.0 0.00 0.00 0.00 95 1011.7
20260505023049 3 0.0 0.0 0.00 0.00 0.00 94 1011.6
20260505022537 3 0.0 0.0 0.00 0.00 0.00 93 1011.8
20260505022035 3 0.0 0.0 0.00 0.00 0.00 93 1011.9
20260505021538 4 0.0 0.0 0.00 0.00 0.00 95 1011.9
20260505021035 5 0.0 0.0 0.00 0.00 0.00 95 1012.2
20260505020535 5 0.0 0.0 0.00 0.00 0.00 95 1012.1
20260505020049 5 0.0 0.0 0.00 0.00 0.00 95 1012.0
20260505015535 5 0.0 0.0 0.00 0.00 0.00 95 1012.2
20260505015035 5 0.0 0.0 0.00 0.00 0.00 95 1012.2
20260505014551 5 0.0 0.0 0.00 0.00 0.00 95 1012.2
20260505014034 5 0.0 0.0 0.00 0.00 0.00 95 1012.1
20260505013533 5 0.0 0.0 0.00 0.00 0.00 95 1012.1
20260505013043 5 0.0 0.0 0.00 0.00 0.00 95 1012.2
20260505012535 5 0.0 0.0 0.00 0.00 0.00 95 1012.2
20260505012034 5 0.0 0.0 0.00 0.00 0.00 94 1012.2
20260505011542 5 0.0 0.0 0.00 0.00 0.00 95 1012.2
20260505011035 5 0.0 0.0 0.00 0.00 0.00 95 1012.3
20260505010536 5 0.0 0.0 0.00 0.00 0.00 94 1012.3
20260505010103 5 0.0 0.0 0.00 0.00 0.00 94 1012.3
20260505005538 5 0.0 0.0 0.00 0.00 0.00 94 1012.3
20260505005035 5 0.0 0.0 0.00 0.00 0.00 94 1012.3
20260505004547 5 0.0 0.0 0.00 0.00 0.00 94 1012.4
20260505004034 5 0.0 0.0 0.00 0.00 0.00 94 1012.4
20260505003535 5 0.0 0.0 0.00 0.00 0.00 94 1012.2
20260505003048 5 0.0 0.0 0.00 0.00 0.00 94 1012.3
20260505002536 5 0.0 0.0 0.00 0.00 0.00 94 1012.3
20260505002035 5 0.0 0.0 0.00 0.00 0.00 94 1012.3
20260505001546 5 0.0 0.0 0.00 0.00 0.00 93 1012.2
20260505001034 5 0.0 0.0 0.00 0.00 0.00 94 1012.0
20260505000538 5 0.0 0.0 0.00 0.00 0.00 94 1012.2
20260505000047 5 0.0 0.0 0.00 0.00 0.00 94 1012.2
20260504235536 5 0.0 0.0 0.00 0.15 0.00 94 1012.2
20260504235036 5 0.0 0.0 0.00 0.15 0.00 93 1012.2
20260504234542 5 0.0 0.0 0.00 0.15 0.00 93 1012.1
20260504234034 5 0.0 0.0 0.00 0.15 0.00 93 1012.2
20260504233534 6 0.0 0.0 0.00 0.15 0.00 93 1012.3
20260504233047 6 0.0 0.0 0.00 0.15 0.00 93 1012.3
20260504232536 6 0.0 0.0 0.00 0.15 0.00 93 1012.5
20260504232036 6 0.0 0.0 0.00 0.15 0.00 93 1012.4
20260504231546 5 0.0 0.0 0.00 0.15 0.00 93 1012.3
20260504231034 5 0.0 0.0 0.00 0.15 0.00 92 1012.5
20260504230535 6 0.0 0.0 0.00 0.15 0.00 92 1012.5
20260504230048 6 0.0 0.0 0.00 0.15 0.00 93 1012.5
20260504225536 5 0.0 0.0 0.00 0.74 0.00 93 1012.5
20260504225034 5 0.0 0.0 0.00 0.74 0.00 91 1012.6
20260504224544 6 0.0 0.0 0.00 0.74 0.00 91 1012.5
20260504224035 6 0.0 0.0 0.00 0.74 0.00 91 1012.6
20260504223539 6 0.0 0.0 0.00 0.74 0.00 92 1012.4
20260504223050 6 0.0 0.0 0.00 0.74 0.00 91 1012.6
20260504222535 6 0.0 0.0 0.00 0.74 0.00 91 1012.7
20260504222034 6 0.0 0.0 0.00 0.74 0.00 91 1012.5
20260504221559 6 0.0 0.0 0.00 0.74 0.00 90 1012.5
20260504221034 6 0.0 0.0 0.00 0.74 0.00 90 1012.6
20260504220534 6 0.0 0.0 0.00 0.74 0.00 91 1012.7
20260504220049 6 0.0 0.0 0.00 0.74 0.00 90 1012.7
20260504215535 6 0.0 0.0 0.00 0.91 0.74 89 1012.7
20260504215036 7 0.0 0.0 0.00 0.91 0.74 89 1012.8
20260504214551 7 0.0 0.0 0.00 0.91 0.74 89 1012.9
20260504214035 7 0.0 0.0 0.00 0.91 0.74 89 1012.8
20260504213535 7 0.0 0.0 0.00 0.91 0.74 88 1012.9
20260504213100 7 0.0 0.0 0.00 0.91 0.74 88 1012.8
20260504212535 7 0.0 0.0 0.00 0.91 0.74 88 1012.8
20260504212038 7 0.0 0.0 0.00 0.91 0.74 87 1012.8
20260504211550 7 0.0 0.0 0.00 0.91 0.74 87 1012.6
20260504211035 7 0.0 0.0 0.00 0.91 0.74 87 1012.8
20260504210533 7 0.0 0.0 0.00 0.91 0.74 86 1012.8
20260504210043 7 0.0 0.0 0.00 0.91 0.74 86 1012.9
20260504205535 7 0.0 0.0 0.00 0.94 0.74 84 1012.9
20260504205035 7 0.0 0.0 0.00 0.94 0.74 84 1012.7
20260504204542 8 0.0 0.0 0.00 0.94 0.74 83 1012.6
20260504204034 8 0.0 0.0 0.00 0.94 0.74 83 1012.8
20260504203535 8 0.0 0.0 0.00 0.94 0.74 82 1012.8
20260504203047 8 0.0 0.0 0.00 0.94 0.74 81 1012.6
20260504202534 8 0.0 0.0 0.00 0.94 0.74 81 1012.5
20260504202034 8 0.0 0.0 0.00 0.94 0.74 81 1012.6
20260504201540 9 0.0 0.0 0.00 0.94 0.74 80 1012.6
20260504201034 9 0.0 0.0 0.00 0.94 0.74 80 1012.6
20260504200535 9 0.0 0.0 0.00 0.94 0.74 80 1012.7
20260504200043 9 0.0 0.0 0.00 0.94 0.74 79 1012.5
20260504195533 9 0.0 0.0 0.00 0.94 0.74 79 1012.6
20260504195034 9 0.0 0.0 0.00 0.94 0.74 79 1012.5
20260504194545 9 0.0 0.0 0.00 0.94 0.74 79 1012.5
20260504194035 9 0.0 0.0 0.00 0.94 0.74 78 1012.3
20260504193538 9 0.0 0.0 0.00 0.94 0.74 78 1012.4
20260504193043 9 0.0 0.0 0.00 0.94 0.74 77 1012.6
20260504192535 10 0.0 0.0 0.00 0.94 0.74 76 1012.4
20260504192037 10 0.0 0.0 0.00 0.94 0.74 76 1012.4
20260504191547 10 0.0 0.0 0.00 0.94 0.74 74 1012.2
20260504191034 10 0.0 0.0 0.00 0.94 0.74 73 1012.2
20260504190534 10 0.0 0.0 0.00 0.94 0.74 71 1012.2
20260504190047 10 0.0 0.0 0.00 0.94 0.74 70 1012.1
20260504185533 10 0.0 0.0 0.00 0.94 0.74 68 1012.3
20260504185035 11 0.0 0.0 0.00 0.94 0.74 65 1012.1
20260504184550 11 0.0 0.0 0.00 0.94 0.74 64 1012.0
20260504184035 11 0.0 0.0 0.00 0.94 0.74 62 1012.1
20260504183535 11 0.0 0.0 0.00 0.94 0.74 61 1012.0
20260504183054 11 0.0 0.0 0.00 0.94 0.74 60 1012.0
20260504182534 11 0.0 0.0 0.00 0.94 0.74 60 1012.0
20260504182033 11 0.0 0.0 0.00 0.94 0.74 60 1011.9
20260504181539 11 0.0 0.0 0.00 0.94 0.74 59 1012.1
20260504181036 11 0.0 0.0 0.00 0.94 0.74 59 1012.1
20260504180534 11 0.0 0.0 0.00 0.94 0.74 59 1012.0
20260504180050 12 0.0 0.0 0.00 0.94 0.74 61 1011.9
20260504175534 12 0.0 0.0 0.00 0.94 0.74 59 1012.0
20260504175037 12 0.0 0.0 0.00 0.94 0.74 59 1012.0
20260504174547 12 0.0 0.0 0.00 0.94 0.74 61 1012.0
20260504174035 12 0.0 0.0 0.00 0.94 0.74 63 1011.9
20260504173536 12 0.0 0.0 0.00 0.94 0.74 61 1011.9
20260504173049 12 0.0 0.0 0.00 0.94 0.74 61 1012.0
20260504172536 12 0.0 0.0 0.00 0.94 0.74 62 1011.9
20260504172036 12 0.0 0.0 0.00 0.94 0.74 61 1011.8
20260504171554 12 0.0 0.0 0.00 0.94 0.74 60 1011.9
20260504171036 12 0.0 0.0 0.00 0.94 0.74 60 1011.8
20260504170538 12 0.0 0.0 0.00 0.94 0.74 59 1011.7
20260504151035 13 0.0 0.0 0.00 0.94 0.74 52 1011.7
20260504150536 13 0.0 0.0 0.00 0.94 0.74 57 1011.9
20260504141035 13 0.0 0.0 0.00 0.94 0.74 56 1011.9